Weather History for Vidsel, Sweden

Change the Weather History Date:

Saturday, January 19, 2013

  Actual Average Record
Temperature  
Mean Temperature 24 °F -  
Max Temperature 33 °F - - ()
Min Temperature 15 °F - - ()
Degree Days  
Heating Degree Days 41    
Moisture  
Dew Point 24 °F    
Average Humidity 84    
Maximum Humidity 93    
Minimum Humidity 74    
Precipitation  
Precipitation 0.00 in - - ()
Sea Level Pressure  
Sea Level Pressure 29.71 in    
Wind  
Wind Speed 7 mph ()    
Max Wind Speed 10 mph    
Max Gust Speed -    
Visibility 6.1 miles    
Events Snow    
T = Trace of Precipitation, MM = Missing Value Source: Averaged Metar Reports

Daily Weather History Graph

Daily Weather History Graph

Search for Another Location

Airport:

Trip Planner

Search our weather history database for the weather conditions in past years. The results will help you decide how hot, cold, wet, or windy it might be!

Date:

Astronomy

Jan. 19, 2013 Rise Set
Actual Time 9:17 AM CET 2:23 PM CET
Civil Twilight 8:04 AM CET 3:36 PM CET
Nautical Twilight 6:55 AM CET 4:45 PM CET
Astronomical Twilight 5:54 AM CET 5:46 PM CET
Moon 9:27 AM CET (1/19) 1:38 AM CET (1/19)
Length of Visible Light 7h 32m
Length of Day
5h 05m
First Quarter, 54% of the Moon is Illuminated
Jan 19
First Quarter
Jan 27
Full
Feb 3
Last Quarter
Feb 10
New
Feb 17
First Quarter

Hourly Weather History & Observations

Time (CET) Temp. Windchill Dew Point Humidity Pressure Visibility Wind Dir Wind Speed Gust Speed Precip Events Conditions
12:20 AM 33.8 °F 27.0 °F 30.2 °F 87% 29.71 in 6.2 mi West 8.1 mph - N/A   Overcast
12:50 AM 33.8 °F 27.0 °F 30.2 °F 87% 29.71 in 6.2 mi West 8.1 mph - N/A   Overcast
1:20 AM 33.8 °F 27.7 °F 30.2 °F 87% 29.71 in 6.2 mi West 6.9 mph - N/A   Overcast
1:50 AM 33.8 °F 27.7 °F 30.2 °F 87% 29.68 in 6.2 mi West 6.9 mph - N/A   Mostly Cloudy
2:20 AM 33.8 °F 27.0 °F 30.2 °F 87% 29.68 in 6.2 mi West 8.1 mph - N/A   Scattered Clouds
2:50 AM 33.8 °F 27.0 °F 30.2 °F 87% 29.65 in 6.2 mi West 8.1 mph - N/A   Scattered Clouds
3:20 AM 33.8 °F 27.0 °F 30.2 °F 87% 29.65 in 6.2 mi West 8.1 mph - N/A   Mostly Cloudy
3:50 AM 33.8 °F 27.7 °F 30.2 °F 87% 29.65 in 6.2 mi West 6.9 mph - N/A   Overcast
4:20 AM 33.8 °F 30.8 °F 30.2 °F 87% 29.62 in 6.2 mi West 3.5 mph - N/A   Overcast
4:50 AM 33.8 °F 27.0 °F 28.4 °F 81% 29.62 in 6.2 mi WNW 8.1 mph - N/A   Overcast
5:20 AM 33.8 °F 27.0 °F 28.4 °F 81% 29.62 in 6.2 mi NW 8.1 mph - N/A   Overcast
5:50 AM 33.8 °F 26.4 °F 28.4 °F 81% 29.59 in 6.2 mi WNW 9.2 mph - N/A   Mostly Cloudy
6:20 AM 33.8 °F 25.8 °F 28.4 °F 81% 29.59 in 6.2 mi WNW 10.4 mph - N/A   Overcast
6:50 AM 33.8 °F 25.8 °F 28.4 °F 81% 29.59 in 6.2 mi WNW 10.4 mph - N/A   Overcast
7:20 AM 32.0 °F 24.2 °F 28.4 °F 87% 29.59 in 6.2 mi WNW 9.2 mph - N/A   Mostly Cloudy
7:50 AM 33.8 °F 27.0 °F 28.4 °F 81% 29.59 in 6.2 mi WNW 8.1 mph - N/A   Overcast
8:20 AM 33.8 °F 27.7 °F 30.2 °F 87% 29.62 in 6.2 mi WNW 6.9 mph - N/A Snow Light Snow
9:20 AM 32.0 °F 25.6 °F 30.2 °F 93% 29.62 in 6.2 mi NW 6.9 mph - N/A   Mostly Cloudy
9:50 AM 32.0 °F 24.8 °F 30.2 °F 93% 29.62 in 6.2 mi NNW 8.1 mph - N/A   Mostly Cloudy
10:20 AM 30.2 °F 24.3 °F 28.4 °F 93% 29.65 in 6.2 mi NNW 5.8 mph - N/A   Partly Cloudy
10:50 AM 30.2 °F 24.3 °F 28.4 °F 93% 29.65 in 6.2 mi NNW 5.8 mph - N/A   Partly Cloudy
11:20 AM 30.2 °F 23.4 °F 28.4 °F 93% 29.65 in 6.2 mi NNW 6.9 mph - N/A   Scattered Clouds
11:50 AM - - 32.0 °F N/A% 29.68 in 1.4 mi North 6.9 mph - N/A   Unknown
12:20 PM 32.0 °F 25.6 °F 28.4 °F 87% 29.68 in 6.2 mi North 6.9 mph - N/A Snow Light Snow
12:50 PM 30.2 °F 23.4 °F 28.4 °F 93% 29.68 in 6.2 mi North 6.9 mph - N/A Snow Light Snow
1:20 PM 30.2 °F 25.4 °F 26.6 °F 86% 29.71 in 6.2 mi NNW 4.6 mph - N/A   Overcast
1:50 PM 30.2 °F 25.4 °F 24.8 °F 80% 29.71 in 6.2 mi North 4.6 mph - N/A   Overcast
2:20 PM 26.6 °F 20.0 °F 21.2 °F 80% 29.71 in 6.2 mi NNW 5.8 mph - N/A   Unknown
2:50 PM 26.6 °F 19.1 °F 21.2 °F 80% 29.74 in 6.2 mi North 6.9 mph - N/A   Unknown
3:20 PM 24.8 °F 16.9 °F 19.4 °F 80% 29.74 in 6.2 mi NW 6.9 mph - N/A   Unknown
3:50 PM 23.0 °F 13.1 °F 15.8 °F 74% 29.74 in 6.2 mi NNW 9.2 mph - N/A   Unknown
4:20 PM 21.2 °F 10.9 °F 17.6 °F 86% 29.74 in 6.2 mi NNW 9.2 mph - N/A   Unknown
4:50 PM 19.4 °F 8.6 °F 14.0 °F 80% 29.77 in 6.2 mi NNW 9.2 mph - N/A   Unknown
5:20 PM 21.2 °F 11.7 °F 17.6 °F 86% 29.77 in 6.2 mi North 8.1 mph - N/A   Unknown
5:50 PM 19.4 °F 10.4 °F 15.8 °F 86% 29.77 in 6.2 mi NNW 6.9 mph - N/A   Unknown
6:20 PM 21.2 °F 16.4 °F 15.8 °F 80% 29.77 in 6.2 mi NW 3.5 mph - N/A   Unknown
6:50 PM 21.2 °F - 15.8 °F 80% 29.80 in 6.2 mi Variable 2.3 mph - N/A   Unknown
7:50 PM 17.6 °F 8.2 °F 14.0 °F 86% 29.80 in 6.2 mi NW 6.9 mph - N/A   Scattered Clouds
8:20 PM 15.8 °F 3.4 °F 10.4 °F 79% 29.80 in 6.2 mi NNW 10.4 mph - N/A   Scattered Clouds
8:50 PM 17.6 °F 6.4 °F 12.2 °F 79% 29.83 in 6.2 mi NNW 9.2 mph - N/A   Partly Cloudy
9:20 PM 19.4 °F 8.6 °F 14.0 °F 80% 29.83 in 6.2 mi NNW 9.2 mph - N/A   Mostly Cloudy
9:50 PM 21.2 °F 10.9 °F 14.0 °F 74% 29.83 in 6.2 mi NNW 9.2 mph - N/A   Overcast
10:20 PM 21.2 °F 11.7 °F 15.8 °F 80% 29.83 in 6.2 mi NNW 8.1 mph - N/A   Overcast
10:50 PM 19.4 °F 10.4 °F 14.0 °F 80% 29.86 in 6.2 mi NNW 6.9 mph - N/A   Overcast
11:20 PM 19.4 °F 8.6 °F 14.0 °F 80% 29.86 in 6.2 mi NNW 9.2 mph - N/A   Overcast
11:50 PM 21.2 °F 10.9 °F 15.8 °F 80% 29.86 in 6.2 mi NNW 9.2 mph - N/A   Overcast